Location: Del Oro Observatory
(38.3044°N, 104.8119°W)
Time: 23:03:48
(UTC-07:00)

Daily predictions for brighter satellites

Satellite Brightness Start Highest point End
(mag) Time Altitude Azimuth Time Altitude Azimuth Time Altitude Azimuth
YAOGAN 1 2.7 18:04:32 10° S 18:08:51 81° WSW 18:13:12 10° NNW
COSMOS 2455 4.1 18:05:50 10° SSE 18:09:53 19° ESE 18:13:57 10° ENE
Cosmos 1733 Rocket 3.4 18:05:42 10° SSW 18:10:00 69° W 18:14:19 10° N
Aureole 3 4.0 18:09:06 10° S 18:14:55 82° E 18:19:27 10° N
GPS 2-05 Rocket1 4.4 18:13:37 10° SSW 18:16:05 21° SSE 18:18:32 10° ESE
SJ-6B 4.4 18:16:45 10° ESE 18:19:05 16° ENE 18:21:28 10° NNE
USA 215 4.2 18:13:40 10° ENE 18:19:09 28° SE 18:24:36 10° S
Cosmos 1812 2.8 18:19:31 10° N 18:23:24 83° W 18:27:16 10° S
OE (NEXTSAT) 4.4 18:22:09 10° WSW 18:25:42 83° NNW 18:29:16 10° ENE
SKYMED 2 4.4 18:23:05 10° N 18:27:20 56° WNW 18:31:35 10° SSW
Envisat 4.2 18:24:33 10° ESE 18:28:16 21° ENE 18:32:00 10° NNE
Meteor 1-20 Rocket 4.2 18:22:57 10° S 18:28:39 79° E 18:34:28 10° NNE
Cosmos 1891 Rocket 4.5 18:24:01 10° N 18:30:07 59° E 18:36:05 10° SSE
Cosmos 2034 Rocket 4.2 18:24:45 10° N 18:30:57 50° E 18:37:04 10° SSE
Cosmos 2263 Rocket 3.4 18:28:53 10° SE 18:32:41 19° E 18:36:30 10° NE
MOS 1 4.4 18:27:11 10° SSE 18:32:50 83° WSW 18:38:33 10° NNW
ATLAS CENTAUR R/B 3.5 18:32:21 10° NNE 18:33:34 11° NE 18:34:39 10° ENE
Cosmos 1975 Rocket 3.7 18:30:36 10° NNE 18:34:42 35° ENE 18:38:47 10° SE
Okean 1 3.4 18:31:45 10° N 18:35:38 49° E 18:39:29 10° SSE
Cosmos 1602 4.1 18:34:45 10° SSE 18:38:24 39° E 18:42:03 10° NNE
Meteor 1-4 Rocket 3.5 18:37:15 10° SSE 18:40:10 25° E 18:43:07 10° NE
NOAA 12 4.5 18:35:03 10° S 18:40:19 71° WSW 18:45:39 10° NNW
CENTAUR R/B 3.2 18:39:12 10° SW 18:45:02 55° NW 18:51:44 10° NNE
Cosmos 1269 Rocket 4.0 18:40:33 10° SSW 18:45:50 85° ESE 18:51:09 10° NNE
Thor Agena Rocket 4.0 18:43:14 10° NNE 18:47:55 37° E 18:52:33 10° SSE
USA 32 3.9 18:43:53 10° S 18:49:06 77° E 18:54:20 10° N
FREGAT/IRIS 2.5 18:46:56 10° SSE 18:49:50 60° ENE 18:52:46 10° N
Tiangong 2 3.9 18:49:57 10° WSW 18:51:54 15° SW 18:53:51 10° S
Resurs 01 Rocket 3.0 18:52:52 19° ENE 18:52:59 19° ENE 18:56:07 10° NNE
CZ-3C R/B 3.9 18:51:40 10° SSE 18:54:04 13° SE 18:57:13 11° ESE
Cosmos 1378 Rocket 4.0 18:49:48 10° NNW 18:54:12 65° W 18:58:35 10° S
EO 1 Del DPAF 4.1 18:52:02 10° N 18:55:45 51° WNW 18:59:26 10° SSW
OAO 2 Rocket 3.5 18:51:02 10° W 18:55:55 60° S 18:58:57 22° ESE
Cosmos 2227 4.2 18:55:23 10° SSW 19:01:07 86° ESE 19:06:51 10° NNE
Cosmos 1437 Rocket 3.1 18:58:09 10° SSW 19:02:12 72° W 19:06:19 10° N
Iridium 4 Rocket 3.5 18:58:56 10° N 19:03:36 68° W 19:07:54 10° S
Meteor 2-4 Rocket 4.1 18:58:10 10° N 19:03:37 42° ENE 19:08:52 10° SE
Cosmos 1782 Rocket 3.7 19:00:11 10° SSW 19:04:36 75° W 19:09:02 10° N
Cosmos 1536 3.7 19:02:06 10° SSE 19:10:07 - NNE 19:04:57 29° ESE
Lacrosse 5 rocket 3.3 19:05:56 10° SSE 19:06:32 12° SSE 19:06:32 12° SSE
Meteor 1-19 Rocket 4.1 19:07:03 10° N 19:12:36 74° E 19:18:10 10° SSE
CZ-4C R/B 3.6 19:07:42 10° NNW 19:14:11 35° NE 19:17:10 27° E
Cosmos 1331 Rocket 4.1 19:09:14 10° N 19:14:27 54° ENE 19:17:51 21° SE
USA 186 4.0 19:17:38 15° NNE 19:17:38 15° NNE 19:18:25 10° N
Spot 2 Rocket 4.3 19:17:54 30° ENE 19:17:54 30° ENE 19:22:10 10° N
BREEZE-M DEB (TANK) 2.2 19:17:09 10° NW 19:19:29 46° NNE 19:19:29 46° NNE
Meteor 1-11 Rocket 3.6 19:14:15 10° S 19:19:47 70° E 19:25:28 10° NNE
Geosat 4.4 19:20:45 37° E 19:21:26 38° ESE 19:26:05 10° S
Alouette 2 Rocket 2.9 19:20:36 10° S 19:24:12 76° E 19:27:56 10° NNE
Cosmos 1943 3.4 19:20:36 10° NNW 19:26:05 48° ENE 19:27:32 39° ESE
Tsikada Rocket 4.3 19:20:49 10° SSW 19:27:11 72° W 19:33:37 10° N
FALCON 9 R/B 4.5 19:19:58 10° W 19:27:52 69° S 19:46:38 25° ESE
Gbstr 26 Del rocket 3.7 19:25:28 10° WSW 19:29:01 42° NNW 19:30:23 29° NNE
Okean 2 Rocket 3.5 19:26:48 10° SSW 19:31:07 63° W 19:35:30 10° N
ERS-2 3.8 19:28:39 10° SSW 19:32:02 35° W 19:35:27 10° NNW
Cosmos 2251 Rocket 3.4 19:27:55 10° S 19:33:04 65° ESE 19:36:55 18° NNE
Cosmos 1939 Rocket 4.1 19:36:59 29° NNE 19:36:59 29° NNE 19:39:14 10° N
ARGOS Delta rocket 4.0 19:31:58 10° N 19:36:43 70° WNW 19:41:12 10° SSW
Cosmos 2151 Rocket 3.4 19:36:15 10° S 19:40:43 84° E 19:45:12 10° N
SeaSat 1 2.3 19:44:27 62° SE 19:45:14 77° ENE 19:50:11 10° NNW
Cosmos 1302 Rocket 4.0 19:40:50 10° N 19:45:36 56° NE 19:45:36 56° NE
SJ-6B 4.5 19:50:03 10° SSW 19:53:27 32° W 19:56:56 10° NNW
COSMOS 2455 3.2 19:49:16 10° SW 19:55:13 62° WNW 20:00:54 12° NNE
Meteor 1-23 Rocket 4.1 19:52:14 10° N 19:58:06 79° E 19:58:52 67° SE
USA 215 3.3 19:59:05 31° NE 20:02:28 73° NW 20:08:57 10° SW
Cosmos 2279 Rocket 4.0 19:58:58 10° N 20:04:23 60° NE 20:04:23 60° NE
Envisat 4.0 20:02:08 10° S 20:06:56 43° W 20:11:48 10° NNW
BREEZE-M DEB (TANK) 4.3 20:06:17 10° WSW 20:09:44 55° NNW 20:13:56 27° NE
ATLAS CENTAUR R/B 3.1 20:08:48 10° NNW 20:10:57 30° NNW 20:10:57 30° NNW
Cosmos 2263 Rocket 2.8 20:10:42 10° SW 20:16:06 52° WNW 20:19:30 23° N
Resurs 01 Rocket 3.4 20:30:26 30° WNW 20:30:26 30° WNW 20:33:16 10° NNW
USA 267 4.0 20:35:45 40° N 20:35:45 40° N 20:40:39 10° NW
CZ-4C R/B 3.4 20:55:53 10° NW 21:02:25 56° W 21:02:25 56° W
